Wind_Speed
5 7 8 4 3 3 1 1 1 4 7 9 8 11 14 19 16 18 18 18 17 16 15 14 12 12 11 12 15 18 21 19 17 15 11 9 8 7 7 7 10 8 8 7
8 10 4 2 3 8 9 7 5 5 9 10 10 9 13 18 16 17 19 19 19 18 17 15 14 13 13 13 14 18 21 22 19 13 13 10 7 6 8 9 9 10 10 10
12 8 4 4 7 9 10 9 4 1 10 4 8 10 12 15 16 14 15 17 18 19 18 16 15 15 15 16 17 16 17 20 20 18 13 13 12 9 7 7 7 8 11 11
7 1 5 8 6 9 7 1 6 8 12 5 10 4 12 14 14 16 15 15 16 18 17 16 14 15 17 17 16 18 18 19 17 19 17 14 13 9 8 7 8 9 11 13
7 7 7 11 3 3 6 2 4 6 8 4 9 8 9 8 12 15 16 15 15 16 17 17 16 14 12 13 14 15 17 19 19 20 17 16 17 11 8 8 10 11 13 14
2 2 4 1 3 4 11 9 6 4 7 9 7 7 11 7 5 3 10 19 18 17 13 11 10 11 11 11 14 12 13 14 17 20 20 19 18 16 16 14 15 13 12 12
8 7 2 6 7 7 9 11 8 9 9 10 6 6 11 7 3 4 7 14 21 17 13 10 8 7 6 7 6 11 8 7 8 10 11 15 16 17 20 20 19 15 16 15
13 10 10 3 7 8 13 12 11 11 10 8 5 6 7 5 3 3 9 18 21 20 12 9 7 8 8 7 6 8 7 5 6 6 8 13 12 12 13 15 15 16 17 16
11 9 7 4 4 2 7 9 6 12 6 11 11 7 5 5 6 5 6 15 17 19 14 13 13 15 16 15 11 8 8 8 4 8 9 8 7 10 7 9 10 8 9 9
7 9 6 6 6 5 6 7 6 8 14 13 8 5 2 7 5 9 12 13 12 15 16 17 18 17 16 16 17 15 13 12 10 6 2 2 0 2 5 9 11 11 12 14
8 12 11 7 9 8 6 8 5 6 4 10 9 3 5 5 5 10 11 13 13 19 20 20 16 15 14 15 18 14 10 11 7 2 3 4 7 8 10 14 17 19 21 22
11 9 10 11 6 2 4 5 8 8 11 8 9 2 6 8 12 13 12 13 15 15 16 17 16 13 9 9 8 5 4 3 3 7 10 12 14 16 18 19 20 22 25 26
9 8 7 7 8 5 8 4 6 6 7 9 9 4 8 10 15 14 15 14 16 19 19 17 15 11 11 8 5 5 9 10 12 16 18 19 20 19 19 21 23 26 29 30
4 4 9 5 2 7 8 8 5 10 9 10 10 11 12 13 15 17 16 16 15 15 14 12 10 9 7 7 7 5 8 11 15 18 19 23 22 24 27 29 30 30 29 30
5 4 2 5 6 4 3 5 5 10 11 10 6 4 14 14 15 18 17 15 13 12 11 10 9 9 10 9 10 10 11 14 18 21 23 24 28 30 30 29 30 31 31 30
4 4 8 7 4 5 4 3 3 4 5 6 7 4 15 17 17 17 15 12 10 10 9 9 9 9 9 9 10 11 12 16 18 20 19 22 26 28 29 30 31 32 33 32
3 8 6 5 2 3 7 4 6 4 5 7 8 8 18 16 18 16 13 9 8 7 7 7 7 7 7 9 11 13 17 20 22 23 26 29 30 32 32 32 32 32 34 35
10 7 0 5 5 9 6 1 3 5 3 4 1 8 16 18 15 12 8 7 6 5 5 5 5 5 6 8 11 15 19 22 22 22 24 26 30 33 33 39 39 40 38 39
7 3 3 4 6 3 4 4 5 5 4 2 5 12 16 15 11 9 8 6 5 5 4 4 3 3 7 9 13 18 19 20 20 21 23 24 28 28 34 38 36 40 41 43
9 6 2 1 5 6 7 8 4 2 6 9 11 14 16 15 9 8 12 7 5 5 3 2 1 4 7 11 14 14 14 15 16 18 19 23 35 35 34 42 40 43 44 47
2 2 6 5 5 1 3 10 4 6 6 13 12 13 14 10 4 10 9 6 5 5 3 2 3 4 7 10 12 13 14 16 18 20 22 25 34 42 43 41 41 46 46 47
7 4 4 2 4 4 10 9 6 5 6 9 11 11 12 7 7 7 6 6 5 4 3 4 5 6 9 11 12 16 19 19 20 23 25 26 34 37 37 42 48 46 46 47
4 3 2 3 4 3 12 2 4 4 4 4 8 10 11 11 8 7 5 4 4 4 5 5 6 9 11 12 13 17 20 21 22 24 25 25 34 33 37 40 50 47 45 47
3 2 3 3 5 4 10 6 3 3 3 3 6 9 10 10 8 6 4 3 4 5 5 5 8 11 14 14 17 18 20 21 24 24 23 26 29 32 33 40 45 50 49 49
3 8 5 2 5 3 7 10 6 6 5 4 6 9 10 10 7 5 3 4 6 7 7 8 10 13 15 18 19 20 19 20 24 22 21 25 27 30 29 43 43 49 45 49
9 4 5 3 6 4 7 3 6 7 7 7 9 10 10 10 8 6 4 5 6 6 6 8 12 14 17 19 21 23 18 21 22 19 19 23 27 29 29 32 39 44 40 48
Wind_Direction
202 239 207 183 232 343 306 293 120 134 147 188 170 140 162 175 175 172 179 179 181 179 175 177 181 181 178 180 187 189 190 195 193 202 210 225 234 247 248 258 250 249 262 276
207 231 113 267 259 270 251 253 209 124 156 226 152 153 161 177 183 175 180 181 187 185 180 184 189 193 193 194 195 200 202 205 208 217 221 222 234 252 246 246 246 255 268 274
267 61 92 260 265 255 228 244 173 133 158 204 163 151 160 172 184 178 188 185 190 189 187 189 197 202 204 206 206 209 213 219 225 220 233 240 247 262 268 261 270 266 270 271
288 127 263 244 234 239 176 280 223 158 191 175 217 114 170 167 184 186 189 188 195 196 196 191 205 213 215 217 217 216 224 227 231 235 230 239 257 260 257 252 255 264 276 270
193 236 215 243 212 237 112 165 156 193 240 256 179 272 128 166 184 186 191 193 201 201 198 200 204 215 222 219 218 222 225 230 233 246 245 244 251 251 267 267 276 286 289 290
234 321 229 39 74 258 147 150 150 199 262 239 130 259 134 115 94 180 203 191 195 200 196 208 210 218 224 224 212 216 218 230 235 244 253 256 262 264 271 271 274 283 285 283
185 201 130 193 164 158 218 206 228 219 215 243 108 224 75 100 88 278 244 219 197 187 190 197 202 213 223 222 251 209 215 254 250 258 266 274 270 268 273 285 288 278 280 279
202 187 174 188 240 229 213 247 251 258 256 261 119 252 103 95 75 289 241 219 198 189 182 175 159 142 135 146 157 157 159 193 231 256 303 293 277 278 284 283 288 287 281 277
216 205 125 188 149 240 173 225 322 282 240 273 269 118 183 119 78 33 124 148 167 174 161 142 126 109 107 107 100 129 172 215 253 225 280 275 286 282 291 326 314 311 315 308
222 207 181 144 154 91 290 127 214 219 267 259 244 258 212 158 120 108 93 105 125 136 120 119 110 99 104 99 93 97 105 108 127 151 26 357 327 297 305 291 310 308 307 307
240 239 150 192 212 202 169 203 235 290 290 287 264 185 82 124 133 121 121 131 116 104 102 105 102 99 96 110 115 82 86 108 115 157 281 285 296 299 291 288 291 294 296 299
216 223 185 193 78 279 293 307 230 235 203 237 292 44 125 127 128 118 108 100 95 99 101 109 113 117 111 113 123 143 95 85 358 309 298 292 293 290 288 290 289 291 293 294
191 224 164 180 174 179 221 178 270 283 290 267 279 93 146 137 117 117 116 111 111 105 97 91 91 91 89 67 71 39 351 338 314 298 303 301 301 302 299 297 295 292 290 290
206 247 257 240 185 148 176 186 219 255 272 272 238 133 160 153 136 131 125 125 123 118 115 114 107 97 79 72 22 12 330 331 328 324 326 321 314 308 307 301 296 293 290 289
244 205 202 66 91 85 112 176 216 245 271 275 345 200 171 163 152 145 140 135 126 113 100 92 83 72 62 50 34 18 358 342 335 329 327 322 319 316 313 307 302 298 293 287
207 150 140 99 115 141 168 180 231 263 260 262 269 135 150 154 146 152 144 135 114 98 87 81 76 70 58 39 27 12 0 350 344 340 333 327 322 319 316 313 310 305 300 295
131 149 199 141 195 199 237 226 267 285 272 297 238 147 153 160 168 157 145 129 109 99 96 89 80 64 45 28 14 6 360 356 352 345 336 331 328 324 320 317 313 309 304 300
127 123 237 116 197 240 56 34 259 282 305 250 33 144 165 168 162 154 144 140 122 115 112 98 87 67 39 16 6 8 3 359 354 350 347 343 336 330 328 325 318 313 307 300
85 108 99 227 238 30 168 180 170 229 126 191 153 154 161 163 162 167 163 151 143 136 128 114 86 35 4 360 2 4 1 0 358 353 352 348 346 334 328 326 320 314 306 300
70 73 311 316 288 264 53 143 161 231 201 157 157 161 163 172 207 138 163 168 160 155 151 132 14 346 347 349 348 345 343 338 336 333 328 330 343 333 324 326 321 321 313 303
145 213 243 200 256 126 137 156 162 240 88 159 170 174 177 199 22 132 145 162 176 182 197 247 306 319 323 326 328 320 311 313 316 316 318 317 329 334 332 324 320 324 315 307
215 225 199 239 258 230 152 152 238 59 97 160 183 191 195 189 156 151 160 173 186 202 238 282 292 303 312 311 310 314 315 317 311 310 315 318 337 338 339 339 341 334 325 313
223 322 359 287 45 109 174 6 127 128 130 182 208 209 205 196 193 178 180 186 209 232 261 269 284 300 310 310 309 310 314 316 316 311 311 314 325 326 335 340 345 339 332 327
171 160 237 218 149 164 195 190 172 199 216 224 226 211 205 204 194 185 179 206 235 258 261 262 284 296 305 312 315 314 319 321 324 317 317 323 316 316 320 332 343 348 344 335
40 170 169 171 147 175 206 219 228 219 215 215 202 200 203 194 183 187 211 245 256 250 256 270 283 296 305 313 318 321 319 320 323 319 320 324 324 325 317 337 337 339 349 349
190 158 220 355 117 252 104 152 215 224 226 216 201 192 191 191 193 194 216 236 240 249 259 275 288 297 305 313 311 320 320 322 325 324 322 323 324 326 326 333 344 353 350 358
Height
1513 1507 1506 1500 1502 1503 1509 1513 1514 1513 1515 1520 1523 1528 1537 1542 1544 1550 1555 1559 1563 1566 1569 1573 1576 1578 1580 1582 1584 1586 1588 1591 1593 1596 1598 1600 1602 1603 1603 1605 1605 1605 1606 1606
1512 1507 1502 1505 1507 1509 1507 1510 1510 1512 1513 1514 1519 1525 1532 1540 1543 1546 1551 1556 1560 1564 1567 1572 1575 1578 1580 1582 1583 1585 1587 1589 1592 1594 1596 1599 1601 1602 1602 1603 1603 1603 1604 1604
1506 1502 1507 1507 1504 1507 1504 1507 1507 1507 1513 1512 1515 1523 1531 1536 1541 1546 1549 1554 1558 1561 1565 1570 1573 1575 1578 1580 1582 1584 1586 1588 1590 1593 1595 1595 1597 1598 1600 1600 1601 1602 1601 1601
1514 1503 1507 1505 1505 1502 1506 1506 1504 1509 1513 1521 1510 1537 1523 1528 1537 1543 1547 1552 1555 1558 1562 1566 1570 1573 1575 1578 1580 1582 1583 1586 1588 1590 1593 1594 1595 1596 1596 1598 1599 1598 1597 1597
1515 1508 1511 1507 1500 1504 1510 1507 1504 1505 1506 1510 1515 1519 1527 1525 1531 1536 1542 1550 1553 1556 1559 1563 1567 1570 1573 1576 1578 1580 1582 1583 1586 1587 1589 1591 1592 1595 1596 1597 1596 1595 1594 1593
1507 1510 1508 1506 1509 1507 1508 1509 1510 1509 1506 1525 1512 1520 1521 1522 1533 1535 1536 1543 1550 1554 1557 1561 1564 1568 1570 1572 1575 1579 1579 1581 1583 1585 1586 1588 1590 1592 1592 1594 1593 1593 1593 1593
1508 1509 1507 1507 1509 1510 1507 1506 1521 1529 1525 1525 1515 1523 1524 1533 1543 1540 1539 1539 1544 1550 1556 1560 1563 1565 1566 1569 1570 1574 1578 1578 1580 1582 1583 1584 1586 1588 1588 1587 1588 1588 1589 1589
1506 1520 1509 1507 1502 1503 1505 1500 1513 1534 1526 1513 1519 1526 1522 1537 1542 1540 1538 1537 1540 1547 1553 1558 1561 1563 1565 1569 1571 1571 1573 1576 1578 1580 1581 1582 1582 1583 1583 1584 1583 1583 1582 1582
1503 1502 1504 1505 1504 1506 1508 1514 1502 1510 1510 1522 1507 1521 1531 1535 1539 1539 1534 1533 1540 1546 1553 1557 1561 1562 1564 1566 1568 1569 1570 1571 1572 1575 1575 1583 1580 1581 1582 1580 1579 1579 1578 1579
1493 1505 1499 1508 1507 1510 1505 1503 1515 1509 1535 1536 1511 1521 1518 1531 1538 1541 1542 1545 1548 1552 1555 1558 1560 1562 1566 1566 1567 1570 1571 1571 1572 1577 1584 1582 1581 1579 1579 1576 1576 1576 1575 1574
1492 1495 1506 1508 1504 1498 1511 1507 1507 1504 1511 1521 1520 1511 1522 1533 1538 1541 1547 1551 1552 1552 1554 1558 1561 1563 1565 1566 1564 1572 1575 1573 1576 1580 1582 1581 1579 1577 1577 1575 1573 1572 1570 1568
1494 1487 1502 1502 1508 1508 1503 1499 1500 1510 1518 1511 1516 1518 1529 1535 1540 1548 1552 1555 1556 1555 1557 1560 1562 1564 1567 1567 1568 1573 1572 1572 1573 1577 1579 1578 1576 1575 1574 1572 1570 1568 1565 1562
1495 1492 1511 1516 1512 1509 1505 1507 1504 1502 1503 1512 1521 1517 1530 1535 1542 1552 1556 1560 1560 1560 1562 1564 1564 1567 1565 1568 1569 1569 1568 1568 1566 1568 1571 1572 1569 1569 1566 1564 1562 1559 1556 1554
1500 1488 1493 1502 1499 1490 1511 1510 1508 1506 1510 1505 1507 1524 1532 1534 1543 1553 1558 1561 1562 1564 1566 1568 1568 1568 1569 1565 1564 1563 1568 1566 1565 1566 1563 1562 1562 1560 1557 1555 1553 1551 1549 1546
1495 1497 1499 1501 1502 1500 1506 1510 1512 1513 1507 1514 1507 1512 1524 1533 1541 1550 1555 1559 1561 1564 1565 1565 1565 1565 1564 1564 1564 1565 1565 1564 1563 1562 1560 1558 1555 1552 1549 1546 1543 1540 1537 1536
1497 1510 1504 1512 1508 1509 1514 1515 1517 1517 1516 1515 1512 1514 1524 1536 1543 1550 1554 1556 1559 1561 1562 1563 1563 1563 1564 1564 1564 1564 1563 1561 1559 1557 1556 1553 1549 1545 1542 1538 1534 1530 1527 1523
1500 1506 1509 1510 1515 1514 1520 1513 1518 1516 1521 1517 1519 1513 1530 1539 1545 1548 1552 1556 1558 1560 1561 1562 1563 1563 1564 1564 1563 1562 1559 1557 1555 1552 1550 1546 1542 1538 1535 1531 1527 1523 1518 1513
1504 1506 1506 1513 1518 1530 1520 1521 1522 1523 1525 1521 1524 1525 1533 1540 1545 1549 1553 1555 1558 1559 1561 1561 1562 1563 1563 1562 1560 1559 1556 1553 1551 1549 1546 1542 1538 1533 1528 1522 1517 1512 1509 1504
1505 1504 1517 1517 1513 1518 1521 1524 1523 1522 1525 1528 1528 1533 1537 1543 1547 1551 1553 1555 1557 1559 1560 1560 1560 1560 1559 1558 1557 1555 1553 1550 1548 1546 1543 1539 1536 1532 1527 1520 1514 1506 1499 1492
1509 1511 1513 1522 1525 1529 1518 1522 1525 1524 1524 1529 1533 1536 1540 1544 1541 1538 1550 1554 1555 1557 1557 1558 1558 1557 1557 1556 1554 1552 1551 1549 1547 1545 1541 1537 1531 1526 1519 1513 1504 1496 1489 1478
1516 1514 1517 1517 1520 1516 1520 1524 1527 1532 1533 1530 1533 1537 1540 1541 1542 1546 1548 1551 1553 1554 1555 1555 1555 1555 1554 1554 1552 1550 1549 1547 1545 1541 1537 1532 1526 1519 1511 1504 1497 1487 1477 1467
1515 1516 1516 1519 1523 1526 1523 1527 1529 1529 1529 1531 1534 1537 1540 1542 1545 1546 1548 1550 1551 1552 1553 1553 1553 1553 1552 1552 1550 1547 1544 1543 1539 1535 1529 1526 1519 1514 1506 1497 1487 1476 1465 1454
1517 1512 1512 1519 1518 1524 1524 1527 1530 1530 1531 1533 1534 1536 1539 1542 1545 1546 1547 1548 1549 1550 1551 1551 1551 1550 1550 1549 1547 1544 1541 1538 1533 1529 1525 1520 1513 1507 1500 1490 1480 1467 1457 1445
1517 1520 1515 1521 1522 1523 1526 1529 1530 1531 1532 1533 1534 1536 1539 1541 1543 1544 1545 1547 1548 1549 1549 1549 1549 1548 1546 1545 1542 1540 1536 1532 1528 1524 1519 1513 1506 1501 1494 1486 1476 1464 1450 1439
1515 1520 1517 1518 1522 1525 1526 1527 1529 1531 1531 1532 1534 1536 1537 1540 1541 1543 1544 1545 1546 1546 1546 1546 1546 1544 1542 1540 1537 1534 1531 1528 1523 1519 1513 1508 1504 1498 1490 1481 1472 1460 1450 1437
1514 1513 1514 1511 1518 1520 1523 1526 1528 1529 1530 1532 1533 1534 1536 1538 1540 1541 1542 1543 1543 1544 1544 1543 1542 1540 1538 1536 1533 1530 1527 1523 1518 1513 1509 1504 1499 1492 1485 1477 1465 1456 1446 1433